Regional Weather Roundup
Issued by NWS Cleveland, OH

Home | Current Version | Previous Version | Graphics & Text | Print | Product List | Glossary On
Versions: 1 2 3 4 5 6 7 8 9 10 11 12 13 14 15 16 17 18 19 20 21 22 23 24 25 26 27 28 29 30 31 32 33 34 35 36 37 38 39 40 41 42 43 44 45 46 47 48 49 50
000
ASUS41 KCLE 201300
RWRCLE
OHIO REGIONAL WEATHER ROUNDUP
NATIONAL WEATHER SERVICE WILMINGTON, OH
800 AM EST SAT JAN 20 2018

NOTE: "FAIR" INDICATES FEW OR NO CLOUDS BELOW 12,000 FEET WITH NO
SIGNIFICANT WEATHER AND/OR OBSTRUCTIONS TO VISIBILITY.

OHZ001>008-015>018-024>027-034-035-043-044-201400-
   NORTHWEST OHIO

CITY           SKY/WX    TMP DP  RH WIND       PRES   REMARKS
DEFIANCE       FAIR      31  23  72 SW12      29.94R WCI  22
FINDLAY        FAIR      34  23  64 SW12      29.95R WCI  25
TOLEDO EXPRESS FAIR      33  25  72 SW14      29.92R WCI  23
TOLEDO EXEC    FAIR      32  24  72 SW12      29.94R WCI  23
LIMA           FAIR      33  25  72 SW14      29.96R WCI  23
$$

OHZ009>014-019>023-028>033-038-089-201400-
   NORTHEAST OHIO

CITY           SKY/WX    TMP DP  RH WIND       PRES   REMARKS
CLE-HOPKINS    MOCLDY    37  24  59 SW13G21   29.97R
CLE-LAKEFRONT  FAIR      38  24  57 SW16G25   29.93R
CUY CO. ARPT   PTCLDY    37  25  60 SW17      29.93R
LORAIN-ELYRIA  FAIR      34  20  56 SW16      29.95R WCI  24
ASHTABULA      FAIR      34  22  61 SW13      29.93R WCI  25
AKRON-CANTON   MOCLDY    31  21  66 SW12      29.97R WCI  22
WOOSTER        NOT AVBL
MANSFIELD      FAIR      33  23  66 SW12G22   29.97R WCI  24
YOUNGSTOWN     MOCLDY    33  22  63 SW13      29.94R WCI  24
$$

OHZ042-051>053-060>062-070>072-077>081-201400-
  SOUTHWEST OHIO

CITY           SKY/WX    TMP DP  RH WIND       PRES   REMARKS
CINC-COVINGTON MOCLDY    33  25  72 S10       30.07R WCI  25
CINC-LUNKEN    FAIR      34  24  67 S10       30.11R WCI  26
HAMILTON       FAIR      35  23  61 S6        30.08R
DAYTON         NOT AVBL
WRIGHT-PAT AFB CLOUDY    34  17  50 S14       30.03R WCI  24
DAYTON GENERAL FAIR      33  22  63 S10       30.04R WCI  25
WILMINGTON     FAIR      32  24  72 SW12      30.05R WCI  23
$$

OHZ036-037-039>041-045>050-054>059-063>069-073>076-082>088-201400-
  CENTRAL AND SOUTHEAST OHIO

CITY           SKY/WX    TMP DP  RH WIND       PRES   REMARKS
COLUMBUS       MOCLDY    31  23  72 S7        30.04R WCI  24
OSU AIRPORT    FAIR      31  23  72 SW10      30.02S WCI  22
BOLTON FIELD   CLEAR     32  25  74 SW14      30.04R WCI  22
RICKENBACK AFB NOT AVBL
NEWARK         FAIR      36  24  62 SW14G21   30.03R
MARION         FAIR      29  21  72 S13       29.99R WCI  19
LANCASTER      FAIR      36  24  62 SW12      30.05R
ZANESVILLE     FAIR      31  20  63 S7        30.05R WCI  24
NEW PHILLY     FAIR      35  23  61 SW3       30.02S
$$




USA.gov is the U.S. government's official web portal to all federal, state and local government web resources and services.